Year,Month,Day,Hour,Minute,Value (Times are PST for temperature in C)
2021,03,27,00,00,6.90
2021,03,27,00,01,6.90
2021,03,27,00,02,6.90
2021,03,27,00,03,6.90
2021,03,27,00,04,6.90
2021,03,27,00,05,6.90
2021,03,27,00,06,6.90
2021,03,27,00,07,6.90
2021,03,27,00,08,6.80
2021,03,27,00,09,6.80
2021,03,27,00,10,6.80
2021,03,27,00,11,6.80
2021,03,27,00,12,6.80
2021,03,27,00,13,6.80
2021,03,27,00,14,6.80
2021,03,27,00,15,6.80
2021,03,27,00,16,6.80
2021,03,27,00,17,6.80
2021,03,27,00,18,6.80
2021,03,27,00,19,6.80
2021,03,27,00,20,6.80
2021,03,27,00,21,6.70
2021,03,27,00,22,6.70
2021,03,27,00,23,6.70
2021,03,27,00,24,6.70
2021,03,27,00,25,6.70
2021,03,27,00,26,6.70
2021,03,27,00,27,6.60
2021,03,27,00,28,6.60
2021,03,27,00,29,6.60
2021,03,27,00,30,6.60
2021,03,27,00,31,6.60
2021,03,27,00,32,6.50
2021,03,27,00,33,6.50
2021,03,27,00,34,6.50
2021,03,27,00,35,6.40
2021,03,27,00,36,6.40
2021,03,27,00,37,6.40
2021,03,27,00,38,6.30
2021,03,27,00,39,6.30
2021,03,27,00,40,6.30
2021,03,27,00,41,6.30
2021,03,27,00,42,6.20
2021,03,27,00,43,6.20
2021,03,27,00,44,6.20
2021,03,27,00,45,6.10
2021,03,27,00,46,6.10
2021,03,27,00,47,6.10
2021,03,27,00,48,6.00
2021,03,27,00,49,6.00
2021,03,27,00,50,5.90
2021,03,27,00,51,5.90
2021,03,27,00,52,5.90
2021,03,27,00,53,5.80
2021,03,27,00,54,5.80
2021,03,27,00,55,5.70
2021,03,27,00,56,5.70
2021,03,27,00,57,5.60
2021,03,27,00,58,5.50
2021,03,27,00,59,5.40
2021,03,27,01,00,5.30
2021,03,27,01,01,5.20
2021,03,27,01,02,5.10
2021,03,27,01,03,5.00
2021,03,27,01,04,4.90
2021,03,27,01,05,4.90
2021,03,27,01,06,4.80
2021,03,27,01,07,4.80
2021,03,27,01,08,4.80
2021,03,27,01,09,4.70
2021,03,27,01,10,4.70
2021,03,27,01,11,4.60
2021,03,27,01,12,4.60
2021,03,27,01,13,4.60
2021,03,27,01,14,4.60
2021,03,27,01,15,4.60
2021,03,27,01,16,4.60
2021,03,27,01,17,4.50
2021,03,27,01,18,4.50
2021,03,27,01,19,4.50
2021,03,27,01,20,4.40
2021,03,27,01,21,4.40
2021,03,27,01,22,4.40
2021,03,27,01,23,4.30
2021,03,27,01,24,4.30
2021,03,27,01,25,4.30
2021,03,27,01,26,4.20
2021,03,27,01,27,4.20
2021,03,27,01,28,4.10
2021,03,27,01,29,4.10
2021,03,27,01,30,4.10
2021,03,27,01,31,4.10
2021,03,27,01,32,4.10
2021,03,27,01,33,4.10
2021,03,27,01,34,4.10
2021,03,27,01,35,4.10
2021,03,27,01,36,4.10
2021,03,27,01,37,4.10
2021,03,27,01,38,4.00
2021,03,27,01,39,4.00
2021,03,27,01,40,4.00
2021,03,27,01,41,3.90
2021,03,27,01,42,3.90
2021,03,27,01,43,3.90
2021,03,27,01,44,3.90
2021,03,27,01,45,3.90
2021,03,27,01,46,3.80
2021,03,27,01,47,3.90
2021,03,27,01,48,3.90
2021,03,27,01,49,3.90
2021,03,27,01,50,3.90
2021,03,27,01,51,3.90
2021,03,27,01,52,3.90
2021,03,27,01,53,3.90
2021,03,27,01,54,3.90
2021,03,27,01,55,3.90
2021,03,27,01,56,3.90
2021,03,27,01,57,3.80
2021,03,27,01,58,3.80
2021,03,27,01,59,3.80
2021,03,27,02,00,3.80
2021,03,27,02,01,3.80
2021,03,27,02,02,3.80
2021,03,27,02,03,3.80
2021,03,27,02,04,3.80
2021,03,27,02,05,3.80
2021,03,27,02,06,3.80
2021,03,27,02,07,3.80
2021,03,27,02,08,3.70
2021,03,27,02,09,3.70
2021,03,27,02,10,3.70
2021,03,27,02,11,3.70
2021,03,27,02,12,3.60
2021,03,27,02,13,3.60
2021,03,27,02,14,3.60
2021,03,27,02,15,3.60
2021,03,27,02,16,3.60
2021,03,27,02,17,3.60
2021,03,27,02,18,3.50
2021,03,27,02,19,3.50
2021,03,27,02,20,3.50
2021,03,27,02,21,3.40
2021,03,27,02,22,3.40
2021,03,27,02,23,3.30
2021,03,27,02,24,3.30
2021,03,27,02,25,3.30
2021,03,27,02,26,3.30
2021,03,27,02,27,3.30
2021,03,27,02,28,3.30
2021,03,27,02,29,3.30
2021,03,27,02,30,3.30
2021,03,27,02,31,3.30
2021,03,27,02,32,3.20
2021,03,27,02,33,3.20
2021,03,27,02,34,3.20
2021,03,27,02,35,3.20
2021,03,27,02,36,3.20
2021,03,27,02,37,3.20
2021,03,27,02,38,3.20
2021,03,27,02,39,3.20
2021,03,27,02,40,3.10
2021,03,27,02,41,3.10
2021,03,27,02,42,3.10
2021,03,27,02,43,3.00
2021,03,27,02,44,3.00
2021,03,27,02,45,3.00
2021,03,27,02,46,3.00
2021,03,27,02,47,3.00
2021,03,27,02,48,3.00
2021,03,27,02,49,3.00
2021,03,27,02,50,3.10
2021,03,27,02,51,3.10
2021,03,27,02,52,3.10
2021,03,27,02,53,3.10
2021,03,27,02,54,3.10
2021,03,27,02,55,3.10
2021,03,27,02,56,3.10
2021,03,27,02,57,3.10
2021,03,27,02,58,3.10
2021,03,27,02,59,3.10
2021,03,27,03,00,3.10
2021,03,27,03,01,3.10
2021,03,27,03,02,3.10
2021,03,27,03,03,3.10
2021,03,27,03,04,3.10
2021,03,27,03,05,3.10
2021,03,27,03,06,3.10
2021,03,27,03,07,3.00
2021,03,27,03,08,3.00
2021,03,27,03,09,3.00
2021,03,27,03,10,3.00
2021,03,27,03,11,3.00
2021,03,27,03,12,2.90
2021,03,27,03,13,2.90
2021,03,27,03,14,2.90
2021,03,27,03,15,2.90
2021,03,27,03,16,2.90
2021,03,27,03,17,2.90
2021,03,27,03,18,2.90
2021,03,27,03,19,2.90
2021,03,27,03,20,2.90
2021,03,27,03,21,2.90
2021,03,27,03,22,2.80
2021,03,27,03,23,2.80
2021,03,27,03,24,2.80
2021,03,27,03,25,2.80
2021,03,27,03,26,2.80
2021,03,27,03,27,2.80
2021,03,27,03,28,2.80
2021,03,27,03,29,2.80
2021,03,27,03,30,2.80
2021,03,27,03,31,2.80
2021,03,27,03,32,2.80
2021,03,27,03,33,2.80
2021,03,27,03,34,2.80
2021,03,27,03,35,2.80
2021,03,27,03,36,2.80
2021,03,27,03,37,2.80
2021,03,27,03,38,2.80
2021,03,27,03,39,2.80
2021,03,27,03,40,2.80
2021,03,27,03,41,2.70
2021,03,27,03,42,2.70
2021,03,27,03,43,2.70
2021,03,27,03,44,2.60
2021,03,27,03,45,2.60
2021,03,27,03,46,2.60
2021,03,27,03,47,2.60
2021,03,27,03,48,2.60
2021,03,27,03,49,2.60
2021,03,27,03,50,2.60
2021,03,27,03,51,2.60
2021,03,27,03,52,2.60
2021,03,27,03,53,2.60
2021,03,27,03,54,2.60
2021,03,27,03,55,2.60
2021,03,27,03,56,2.60
2021,03,27,03,57,2.60
2021,03,27,03,58,2.60
2021,03,27,03,59,2.50
2021,03,27,04,00,2.50
2021,03,27,04,01,2.50
2021,03,27,04,02,2.50
2021,03,27,04,03,2.50
2021,03,27,04,04,2.40
2021,03,27,04,05,2.40
2021,03,27,04,06,2.40
2021,03,27,04,07,2.40
2021,03,27,04,08,2.40
2021,03,27,04,09,2.40
2021,03,27,04,10,2.30
2021,03,27,04,11,2.30
2021,03,27,04,12,2.30
2021,03,27,04,13,2.30
2021,03,27,04,14,2.30
2021,03,27,04,15,2.40
2021,03,27,04,16,2.40
2021,03,27,04,17,2.40
2021,03,27,04,18,2.40
2021,03,27,04,19,2.40
2021,03,27,04,20,2.30
2021,03,27,04,21,2.30
2021,03,27,04,22,2.30
2021,03,27,04,23,2.30
2021,03,27,04,24,2.30
2021,03,27,04,25,2.30
2021,03,27,04,26,2.30
2021,03,27,04,27,2.30
2021,03,27,04,28,2.20
2021,03,27,04,29,2.30
2021,03,27,04,30,2.30
2021,03,27,04,31,2.30
2021,03,27,04,32,2.30
2021,03,27,04,33,2.30
2021,03,27,04,34,2.30
2021,03,27,04,35,2.30
2021,03,27,04,36,2.30
2021,03,27,04,37,2.30
2021,03,27,04,38,2.30
2021,03,27,04,39,2.30
2021,03,27,04,40,2.20
2021,03,27,04,41,2.20
2021,03,27,04,42,2.20
2021,03,27,04,43,2.20
2021,03,27,04,44,2.20
2021,03,27,04,45,2.20
2021,03,27,04,46,2.20
2021,03,27,04,47,2.10
2021,03,27,04,48,2.10
2021,03,27,04,49,2.10
2021,03,27,04,50,2.10
2021,03,27,04,51,2.00
2021,03,27,04,52,2.00
2021,03,27,04,53,2.00
2021,03,27,04,54,2.00
2021,03,27,04,55,2.00
2021,03,27,04,56,2.00
2021,03,27,04,57,1.90
2021,03,27,04,58,1.90
2021,03,27,04,59,1.90
2021,03,27,05,00,1.90
2021,03,27,05,01,1.90
2021,03,27,05,02,1.90
2021,03,27,05,03,1.90
2021,03,27,05,04,2.00
2021,03,27,05,05,2.00
2021,03,27,05,06,2.00
2021,03,27,05,07,2.00
2021,03,27,05,08,2.00
2021,03,27,05,09,2.00
2021,03,27,05,10,2.00
2021,03,27,05,11,2.10
2021,03,27,05,12,2.10
2021,03,27,05,13,2.10
2021,03,27,05,14,2.10
2021,03,27,05,15,2.10
2021,03,27,05,16,2.10
2021,03,27,05,17,2.10
2021,03,27,05,18,2.00
2021,03,27,05,19,2.00
2021,03,27,05,20,2.00
2021,03,27,05,21,1.90
2021,03,27,05,22,1.90
2021,03,27,05,23,1.90
2021,03,27,05,24,1.90
2021,03,27,05,25,1.80
2021,03,27,05,26,1.80
2021,03,27,05,27,1.80
2021,03,27,05,28,1.80
2021,03,27,05,29,1.80
2021,03,27,05,30,1.80
2021,03,27,05,31,1.80
2021,03,27,05,32,1.80
2021,03,27,05,33,1.80
2021,03,27,05,34,1.80
2021,03,27,05,35,1.80
2021,03,27,05,36,1.80
2021,03,27,05,37,1.80
2021,03,27,05,38,1.80
2021,03,27,05,39,1.90
2021,03,27,05,40,1.80
2021,03,27,05,41,1.80
2021,03,27,05,42,1.80
2021,03,27,05,43,1.80
2021,03,27,05,44,1.80
2021,03,27,05,45,1.80
2021,03,27,05,46,1.80
2021,03,27,05,47,1.80
2021,03,27,05,48,1.80
2021,03,27,05,49,1.80
2021,03,27,05,50,1.70
2021,03,27,05,51,1.70
2021,03,27,05,52,1.60
2021,03,27,05,53,1.60
2021,03,27,05,54,1.60
2021,03,27,05,55,1.60
2021,03,27,05,56,1.50
2021,03,27,05,57,1.50
2021,03,27,05,58,1.50
2021,03,27,05,59,1.50
2021,03,27,06,00,1.40
2021,03,27,06,01,1.40
2021,03,27,06,02,1.40
2021,03,27,06,03,1.40
2021,03,27,06,04,1.50
2021,03,27,06,05,1.50
2021,03,27,06,06,1.50
2021,03,27,06,07,1.50
2021,03,27,06,08,1.50
2021,03,27,06,09,1.50
2021,03,27,06,10,1.50
2021,03,27,06,11,1.50
2021,03,27,06,12,1.50
2021,03,27,06,13,1.50
2021,03,27,06,14,1.50
2021,03,27,06,15,1.40
2021,03,27,06,16,1.40
2021,03,27,06,17,1.40
2021,03,27,06,18,1.40
2021,03,27,06,19,1.40
2021,03,27,06,20,1.40
2021,03,27,06,21,1.40
2021,03,27,06,22,1.40
2021,03,27,06,23,1.30
2021,03,27,06,24,1.30
2021,03,27,06,25,1.30
2021,03,27,06,26,1.30
2021,03,27,06,27,1.30
2021,03,27,06,28,1.30
2021,03,27,06,29,1.40
2021,03,27,06,30,1.40
2021,03,27,06,31,1.40
2021,03,27,06,32,1.40
2021,03,27,06,33,1.40
2021,03,27,06,34,1.40
2021,03,27,06,35,1.40
2021,03,27,06,36,1.40
2021,03,27,06,37,1.40
2021,03,27,06,38,1.40
2021,03,27,06,39,1.40
2021,03,27,06,40,1.40
2021,03,27,06,41,1.40
2021,03,27,06,42,1.40
2021,03,27,06,43,1.40
2021,03,27,07,51,1.10
2021,03,27,07,52,1.10
2021,03,27,07,53,1.10
2021,03,27,07,54,1.10
2021,03,27,07,55,1.10
2021,03,27,07,56,1.10
2021,03,27,07,57,1.20
2021,03,27,07,58,1.20
2021,03,27,07,59,1.20
2021,03,27,08,00,1.20
2021,03,27,08,01,1.30
2021,03,27,08,02,1.30
2021,03,27,08,03,1.40
2021,03,27,08,04,1.40
2021,03,27,08,05,1.40
2021,03,27,08,06,1.40
2021,03,27,08,07,1.40
2021,03,27,08,08,1.40
2021,03,27,08,09,1.40
2021,03,27,08,10,1.40
2021,03,27,08,11,1.50
2021,03,27,08,12,1.50
2021,03,27,08,13,1.50
2021,03,27,08,14,1.60
2021,03,27,08,15,1.60
2021,03,27,08,16,1.60
2021,03,27,08,17,1.60
2021,03,27,08,18,1.60
2021,03,27,08,19,1.70
2021,03,27,08,20,1.70
2021,03,27,08,21,1.70
2021,03,27,08,22,1.70
2021,03,27,08,23,1.70
2021,03,27,08,24,1.80
2021,03,27,08,25,1.80
2021,03,27,08,26,1.80
2021,03,27,08,27,1.90
2021,03,27,08,28,1.90
2021,03,27,08,29,1.90
2021,03,27,08,30,2.00
2021,03,27,08,31,2.00
2021,03,27,08,32,2.00
2021,03,27,08,33,2.10
2021,03,27,08,34,2.10
2021,03,27,08,35,2.20
2021,03,27,08,36,2.20
2021,03,27,08,37,2.30
2021,03,27,08,38,2.30
2021,03,27,08,39,2.40
2021,03,27,08,40,2.40
2021,03,27,08,41,2.50
2021,03,27,08,42,2.50
2021,03,27,08,43,2.60
2021,03,27,08,44,2.60
2021,03,27,08,45,2.60
2021,03,27,08,46,2.70
2021,03,27,08,47,2.80
2021,03,27,08,48,2.80
2021,03,27,08,49,2.90
2021,03,27,08,50,3.00
2021,03,27,08,51,3.00
2021,03,27,08,52,3.00
2021,03,27,08,53,3.10
2021,03,27,08,54,3.10
2021,03,27,08,55,3.10
2021,03,27,08,56,3.10
2021,03,27,08,57,3.10
2021,03,27,08,58,3.10
2021,03,27,08,59,3.20
2021,03,27,09,00,3.20
2021,03,27,09,01,3.20
2021,03,27,09,02,3.30
2021,03,27,09,03,3.30
2021,03,27,09,04,3.30
2021,03,27,09,05,3.30
2021,03,27,09,06,3.40
2021,03,27,09,07,3.40
2021,03,27,09,08,3.40
2021,03,27,09,09,3.50
2021,03,27,09,10,3.60
2021,03,27,09,11,3.60
2021,03,27,09,12,3.70
2021,03,27,09,13,3.70
2021,03,27,09,14,3.80
2021,03,27,09,15,3.80
2021,03,27,09,16,3.80
2021,03,27,09,17,3.90
2021,03,27,09,18,3.90
2021,03,27,09,19,4.00
2021,03,27,09,20,4.10
2021,03,27,09,21,4.20
2021,03,27,09,22,4.30
2021,03,27,09,23,4.40
2021,03,27,09,24,4.60
2021,03,27,09,25,4.90
2021,03,27,09,26,5.10
2021,03,27,09,27,5.30
2021,03,27,09,28,5.50
2021,03,27,09,29,5.70
2021,03,27,09,30,5.80
2021,03,27,09,31,5.90
2021,03,27,09,32,6.00
2021,03,27,09,33,6.10
2021,03,27,09,34,6.20
2021,03,27,09,35,6.30
2021,03,27,09,36,6.30
2021,03,27,09,37,6.40
2021,03,27,09,38,6.40
2021,03,27,09,39,6.50
2021,03,27,09,40,6.50
2021,03,27,09,41,6.50
2021,03,27,09,42,6.60
2021,03,27,09,43,6.60
2021,03,27,09,44,6.60
2021,03,27,09,45,6.70
2021,03,27,09,46,6.70
2021,03,27,09,47,6.70
2021,03,27,09,48,6.80
2021,03,27,09,49,6.80
2021,03,27,09,50,6.90
2021,03,27,09,51,6.90
2021,03,27,09,52,6.90
2021,03,27,09,53,6.90
2021,03,27,09,54,7.00
2021,03,27,09,55,7.00
2021,03,27,09,56,7.10
2021,03,27,09,57,7.10
2021,03,27,09,58,7.10
2021,03,27,09,59,7.10
2021,03,27,10,00,7.10
2021,03,27,10,01,7.20
2021,03,27,10,02,7.20
2021,03,27,10,03,7.20
2021,03,27,10,04,7.20
2021,03,27,10,05,7.20
2021,03,27,10,06,7.20
2021,03,27,10,07,7.30
2021,03,27,10,08,7.30
2021,03,27,10,09,7.30
2021,03,27,10,10,7.30
2021,03,27,10,11,7.30
2021,03,27,10,12,7.30
2021,03,27,10,13,7.30
2021,03,27,10,14,7.30
2021,03,27,10,15,7.30
2021,03,27,10,16,7.30
2021,03,27,10,17,7.40
2021,03,27,10,18,7.40
2021,03,27,10,19,7.40
2021,03,27,10,20,7.40
2021,03,27,10,21,7.40
2021,03,27,10,22,7.40
2021,03,27,10,23,7.40
2021,03,27,10,24,7.40
2021,03,27,10,25,7.40
2021,03,27,10,26,7.40
2021,03,27,10,27,7.40
2021,03,27,10,28,7.40
2021,03,27,10,29,7.40
2021,03,27,10,30,7.40
2021,03,27,10,31,7.40
2021,03,27,10,32,7.40
2021,03,27,10,33,7.50
2021,03,27,10,34,7.50
2021,03,27,10,35,7.50
2021,03,27,10,36,7.60
2021,03,27,10,37,7.60
2021,03,27,10,38,7.60
2021,03,27,10,39,7.60
2021,03,27,10,40,7.60
2021,03,27,10,41,7.60
2021,03,27,10,42,7.60
2021,03,27,10,43,7.60
2021,03,27,10,44,7.60
2021,03,27,10,45,7.60
2021,03,27,10,46,7.60
2021,03,27,10,47,7.60
2021,03,27,10,48,7.60
2021,03,27,10,49,7.60
2021,03,27,10,50,7.60
2021,03,27,10,51,7.60
2021,03,27,10,52,7.60
2021,03,27,10,53,7.60
2021,03,27,10,54,7.60
2021,03,27,10,55,7.60
2021,03,27,10,56,7.60
2021,03,27,10,57,7.60
2021,03,27,10,58,7.60
2021,03,27,10,59,7.60
2021,03,27,11,00,7.60
2021,03,27,11,01,7.60
2021,03,27,11,02,7.60
2021,03,27,11,03,7.60
2021,03,27,11,04,7.70
2021,03,27,11,05,7.70
2021,03,27,11,06,7.70
2021,03,27,11,07,7.70
2021,03,27,11,08,7.70
2021,03,27,11,09,7.70
2021,03,27,11,10,7.70
2021,03,27,11,11,7.70
2021,03,27,11,12,7.70
2021,03,27,11,13,7.70
2021,03,27,11,14,7.70
2021,03,27,11,15,7.70
2021,03,27,11,16,7.70
2021,03,27,11,17,7.70
2021,03,27,11,18,7.70
2021,03,27,11,19,7.70
2021,03,27,11,20,7.70
2021,03,27,11,21,7.70
2021,03,27,11,22,7.70
2021,03,27,11,23,7.70
2021,03,27,11,24,7.70
2021,03,27,11,25,7.70
2021,03,27,11,26,7.70
2021,03,27,11,27,7.70
2021,03,27,11,28,7.70
2021,03,27,11,29,7.70
2021,03,27,11,30,7.70
2021,03,27,11,31,7.70
2021,03,27,11,32,7.70
2021,03,27,11,33,7.70
2021,03,27,11,34,7.70
2021,03,27,11,35,7.70
2021,03,27,11,36,7.70
2021,03,27,11,37,7.70
2021,03,27,11,38,7.70
2021,03,27,11,39,7.70
2021,03,27,11,40,7.70
2021,03,27,11,41,7.70
2021,03,27,11,42,7.70
2021,03,27,11,43,7.70
2021,03,27,11,44,7.70
2021,03,27,11,45,7.70
2021,03,27,11,46,7.70
2021,03,27,11,47,7.70
2021,03,27,11,48,7.70
2021,03,27,11,49,7.70
2021,03,27,11,50,7.70
2021,03,27,11,51,7.70
2021,03,27,11,52,7.70
2021,03,27,11,53,7.70
2021,03,27,11,54,7.80
2021,03,27,11,55,7.80
2021,03,27,11,56,7.80
2021,03,27,11,57,7.90
2021,03,27,11,58,7.90
2021,03,27,11,59,7.90
2021,03,27,12,00,7.90
2021,03,27,12,01,7.90
2021,03,27,12,02,8.00
2021,03,27,12,03,8.00
2021,03,27,12,04,8.00
2021,03,27,12,05,8.00
2021,03,27,12,06,8.00
2021,03,27,12,07,8.00
2021,03,27,12,08,8.00
2021,03,27,12,09,8.00
2021,03,27,12,10,7.90
2021,03,27,12,11,7.90
2021,03,27,12,12,7.90
2021,03,27,12,13,7.90
2021,03,27,12,14,7.90
2021,03,27,12,15,7.90
2021,03,27,12,16,7.90
2021,03,27,12,17,7.90
2021,03,27,12,18,7.80
2021,03,27,12,19,7.80
2021,03,27,12,20,7.80
2021,03,27,12,21,7.80
2021,03,27,12,22,7.80
2021,03,27,12,23,7.80
2021,03,27,12,24,7.80
2021,03,27,12,25,7.80
2021,03,27,12,26,7.80
2021,03,27,12,27,7.80
2021,03,27,12,28,7.80
2021,03,27,12,29,7.80
2021,03,27,12,30,7.90
2021,03,27,12,31,7.90
2021,03,27,12,32,7.90
2021,03,27,12,33,7.90
2021,03,27,12,34,7.90
2021,03,27,12,35,7.90
2021,03,27,12,36,7.90
2021,03,27,12,37,7.90
2021,03,27,12,38,7.90
2021,03,27,12,39,7.90
2021,03,27,12,40,7.90
2021,03,27,12,41,7.90
2021,03,27,12,42,7.90
2021,03,27,12,43,7.90
2021,03,27,12,44,7.90
2021,03,27,12,45,7.90
2021,03,27,12,46,7.90
2021,03,27,12,47,7.90
2021,03,27,12,48,7.90
2021,03,27,12,49,7.90
2021,03,27,12,50,7.90
2021,03,27,12,51,7.90
2021,03,27,12,52,7.90
2021,03,27,12,53,7.90
2021,03,27,12,54,7.90
2021,03,27,12,55,7.90
2021,03,27,12,56,7.90
2021,03,27,12,57,7.90
2021,03,27,12,58,7.90
2021,03,27,12,59,7.90
2021,03,27,13,00,7.90
2021,03,27,13,01,7.90
2021,03,27,13,02,7.90
2021,03,27,13,03,7.90
2021,03,27,13,04,7.90
2021,03,27,13,05,7.90
2021,03,27,13,06,7.90
2021,03,27,13,07,7.90
2021,03,27,13,08,8.00
2021,03,27,13,09,8.00
2021,03,27,13,10,8.00
2021,03,27,13,11,8.00
2021,03,27,13,12,8.00
2021,03,27,13,13,8.00
2021,03,27,13,14,8.10
2021,03,27,13,15,8.00
2021,03,27,13,16,8.00
2021,03,27,13,17,8.00
2021,03,27,13,18,8.00
2021,03,27,13,19,8.00
2021,03,27,13,20,8.00
2021,03,27,13,21,8.00
2021,03,27,13,22,8.00
2021,03,27,13,23,8.00
2021,03,27,13,24,8.10
2021,03,27,13,25,8.10
2021,03,27,13,26,8.10
2021,03,27,13,27,8.10
2021,03,27,13,28,8.10
2021,03,27,13,29,8.10
2021,03,27,13,30,8.10
2021,03,27,13,31,8.20
2021,03,27,13,32,8.20
2021,03,27,13,33,8.30
2021,03,27,13,34,8.30
2021,03,27,13,35,8.40
2021,03,27,13,36,8.40
2021,03,27,13,37,8.40
2021,03,27,13,38,8.40
2021,03,27,13,39,8.40
2021,03,27,13,40,8.50
2021,03,27,13,41,8.50
2021,03,27,13,42,8.60
2021,03,27,13,43,8.60
2021,03,27,13,44,8.70
2021,03,27,13,45,8.70
2021,03,27,13,46,8.70
2021,03,27,13,47,8.70
2021,03,27,13,48,8.70
2021,03,27,13,49,8.80
2021,03,27,13,50,8.80
2021,03,27,13,51,8.80
2021,03,27,13,52,8.80
2021,03,27,13,53,8.80
2021,03,27,13,54,8.80
2021,03,27,13,55,8.80
2021,03,27,13,56,8.80
2021,03,27,13,57,8.80
2021,03,27,13,58,8.80
2021,03,27,13,59,8.80
2021,03,27,14,00,8.90
2021,03,27,14,01,8.90
2021,03,27,14,02,8.90
2021,03,27,14,03,8.90
2021,03,27,14,04,8.90
2021,03,27,14,05,8.90
2021,03,27,14,06,8.90
2021,03,27,14,07,8.90
2021,03,27,14,08,8.90
2021,03,27,14,09,8.80
2021,03,27,14,10,8.90
2021,03,27,14,11,8.90
2021,03,27,14,12,8.90
2021,03,27,14,13,8.90
2021,03,27,14,14,8.90
2021,03,27,14,15,8.90
2021,03,27,14,16,8.90
2021,03,27,14,17,8.90
2021,03,27,14,18,8.90
2021,03,27,14,19,8.90
2021,03,27,14,20,8.90
2021,03,27,14,21,8.90
2021,03,27,14,22,8.90
2021,03,27,14,23,8.90
2021,03,27,14,24,8.80
2021,03,27,14,25,8.80
2021,03,27,14,26,8.80
2021,03,27,14,27,8.80
2021,03,27,14,28,8.80
2021,03,27,14,29,8.80
2021,03,27,14,30,8.80
2021,03,27,14,31,8.80
2021,03,27,14,32,8.80
2021,03,27,14,33,8.80
2021,03,27,14,34,8.80
2021,03,27,14,35,8.80
2021,03,27,14,36,8.80
2021,03,27,14,37,8.80
2021,03,27,14,38,8.80
2021,03,27,14,39,8.80
2021,03,27,14,40,8.80
2021,03,27,14,41,8.80
2021,03,27,14,42,8.80
2021,03,27,14,43,8.80
2021,03,27,14,44,8.80
2021,03,27,14,45,8.80
2021,03,27,14,46,8.80
2021,03,27,14,47,8.90
2021,03,27,14,48,8.90
2021,03,27,14,49,8.90
2021,03,27,14,50,8.90
2021,03,27,14,51,8.90
2021,03,27,14,52,8.90
2021,03,27,14,53,9.00
2021,03,27,14,54,8.90
2021,03,27,14,55,8.90
2021,03,27,14,56,8.90
2021,03,27,14,57,9.00
2021,03,27,14,58,9.00
2021,03,27,14,59,9.10
2021,03,27,15,00,9.20
2021,03,27,15,01,9.10
2021,03,27,15,02,9.10
2021,03,27,15,03,9.00
2021,03,27,15,04,8.90
2021,03,27,15,05,8.90
2021,03,27,15,06,8.90
2021,03,27,15,07,9.00
2021,03,27,15,08,9.00
2021,03,27,15,09,9.00
2021,03,27,15,10,9.10
2021,03,27,15,11,9.10
2021,03,27,15,12,9.10
2021,03,27,15,13,9.10
2021,03,27,15,14,9.10
2021,03,27,15,15,9.10
2021,03,27,15,16,9.10
2021,03,27,15,17,9.20
2021,03,27,15,18,9.20
2021,03,27,15,19,9.30
2021,03,27,15,20,9.30
2021,03,27,15,21,9.20
2021,03,27,15,22,9.20
2021,03,27,15,23,9.20
2021,03,27,15,24,9.20
2021,03,27,15,25,9.20
2021,03,27,15,26,9.20
2021,03,27,15,27,9.30
2021,03,27,15,28,9.30
2021,03,27,15,29,9.30
2021,03,27,15,30,9.30
2021,03,27,15,31,9.20
2021,03,27,15,32,9.20
2021,03,27,15,33,9.20
2021,03,27,15,34,9.30
2021,03,27,15,35,9.30
2021,03,27,15,36,9.30
2021,03,27,15,37,9.30
2021,03,27,15,38,9.30
2021,03,27,15,39,9.30
2021,03,27,15,40,9.30
2021,03,27,15,41,9.30
2021,03,27,15,42,9.30
2021,03,27,15,43,9.30
2021,03,27,15,44,9.30
2021,03,27,15,45,9.40
2021,03,27,15,46,9.40
2021,03,27,15,47,9.50
2021,03,27,15,48,9.50
2021,03,27,15,49,9.60
2021,03,27,15,50,9.60
2021,03,27,15,51,9.70
2021,03,27,15,52,9.70
2021,03,27,15,53,9.80
2021,03,27,15,54,9.80
2021,03,27,15,55,9.80
2021,03,27,15,56,9.80
2021,03,27,15,57,9.70
2021,03,27,15,58,9.70
2021,03,27,15,59,9.60
2021,03,27,16,00,9.60
2021,03,27,16,01,9.60
2021,03,27,16,02,9.60
2021,03,27,16,03,9.50
2021,03,27,16,04,9.60
2021,03,27,16,05,9.60
2021,03,27,16,06,9.50
2021,03,27,16,07,9.50
2021,03,27,16,08,9.40
2021,03,27,16,09,9.40
2021,03,27,16,10,9.40
2021,03,27,16,11,9.40
2021,03,27,16,12,9.40
2021,03,27,16,13,9.40
2021,03,27,16,14,9.30
2021,03,27,16,15,9.40
2021,03,27,16,16,9.40
2021,03,27,16,17,9.30
2021,03,27,16,18,9.30
2021,03,27,16,19,9.30
2021,03,27,16,20,9.30
2021,03,27,16,21,9.30
2021,03,27,16,22,9.30
2021,03,27,16,23,9.30
2021,03,27,16,24,9.20
2021,03,27,16,25,9.20
2021,03,27,16,26,9.20
2021,03,27,16,27,9.20
2021,03,27,16,28,9.20
2021,03,27,16,29,9.10
2021,03,27,16,30,9.10
2021,03,27,16,31,9.00
2021,03,27,16,32,8.90
2021,03,27,16,33,8.90
2021,03,27,16,34,8.90
2021,03,27,16,35,8.80
2021,03,27,16,36,8.80
2021,03,27,16,37,8.80
2021,03,27,16,38,8.80
2021,03,27,16,39,8.80
2021,03,27,16,40,8.80
2021,03,27,16,41,8.80
2021,03,27,16,42,8.80
2021,03,27,16,43,8.90
2021,03,27,16,44,8.90
2021,03,27,16,45,8.90
2021,03,27,16,46,8.90
2021,03,27,16,47,8.90
2021,03,27,16,48,8.90
2021,03,27,16,49,8.90
2021,03,27,16,50,8.90
2021,03,27,16,51,8.90
2021,03,27,16,52,8.90
2021,03,27,16,53,8.90
2021,03,27,16,54,8.90
2021,03,27,16,55,8.90
2021,03,27,16,56,8.80
2021,03,27,16,57,8.80
2021,03,27,16,58,8.70
2021,03,27,16,59,8.70
2021,03,27,17,00,8.70
2021,03,27,17,01,8.70
2021,03,27,17,02,8.60
2021,03,27,17,03,8.50
2021,03,27,17,04,8.50
2021,03,27,17,05,8.50
2021,03,27,17,06,8.40
2021,03,27,17,07,8.40
2021,03,27,17,08,8.40
2021,03,27,17,09,8.40
2021,03,27,17,10,8.40
2021,03,27,17,11,8.40
2021,03,27,17,12,8.30
2021,03,27,17,13,8.30
2021,03,27,17,14,8.30
2021,03,27,17,15,8.30
2021,03,27,17,16,8.30
2021,03,27,17,17,8.30
2021,03,27,17,18,8.30
2021,03,27,17,19,8.30
2021,03,27,17,20,8.30
2021,03,27,17,21,8.30
2021,03,27,17,22,8.30
2021,03,27,17,23,8.30
2021,03,27,17,24,8.30
2021,03,27,17,25,8.30
2021,03,27,17,26,8.30
2021,03,27,17,27,8.30
2021,03,27,17,28,8.30
2021,03,27,17,29,8.20
2021,03,27,17,30,8.20
2021,03,27,17,31,8.20
2021,03,27,17,32,8.20
2021,03,27,17,33,8.20
2021,03,27,17,34,8.20
2021,03,27,17,35,8.20
2021,03,27,17,36,8.20
2021,03,27,17,37,8.20
2021,03,27,17,38,8.10
2021,03,27,17,39,8.10
2021,03,27,17,40,8.10
2021,03,27,17,41,8.10
2021,03,27,17,42,8.10
2021,03,27,17,43,8.10
2021,03,27,17,44,8.10
2021,03,27,17,45,8.10
2021,03,27,17,46,8.10
2021,03,27,17,47,8.10
2021,03,27,17,48,8.10
2021,03,27,17,49,8.10
2021,03,27,17,50,8.10
2021,03,27,17,51,8.10
2021,03,27,17,52,8.10
2021,03,27,17,53,8.10
2021,03,27,17,54,8.10
2021,03,27,17,55,8.10
2021,03,27,17,56,8.10
2021,03,27,17,57,8.10
2021,03,27,17,58,8.10
2021,03,27,17,59,8.10
2021,03,27,18,00,8.10
2021,03,27,18,01,8.10
2021,03,27,18,02,8.10
2021,03,27,18,03,8.20
2021,03,27,18,04,8.20
2021,03,27,18,05,8.20
2021,03,27,18,06,8.20
2021,03,27,18,07,8.20
2021,03,27,18,08,8.20
2021,03,27,18,09,8.20
2021,03,27,18,10,8.30
2021,03,27,18,11,8.30
2021,03,27,18,12,8.30
2021,03,27,18,13,8.30
2021,03,27,18,14,8.30
2021,03,27,18,15,8.30
2021,03,27,18,16,8.30
2021,03,27,18,17,8.30
2021,03,27,18,18,8.30
2021,03,27,18,19,8.30
2021,03,27,18,20,8.30
2021,03,27,18,21,8.30
2021,03,27,18,22,8.30
2021,03,27,18,23,8.30
2021,03,27,18,24,8.40
2021,03,27,18,25,8.40
2021,03,27,18,26,8.40
2021,03,27,18,27,8.50
2021,03,27,18,28,8.50
2021,03,27,18,29,8.50
2021,03,27,18,30,8.60
2021,03,27,18,31,8.70
2021,03,27,18,32,8.70
2021,03,27,18,33,8.80
2021,03,27,18,34,8.80
2021,03,27,18,35,8.80
2021,03,27,18,36,8.90
2021,03,27,18,37,8.90
2021,03,27,18,38,9.00
2021,03,27,18,39,9.00
2021,03,27,18,40,9.10
2021,03,27,18,41,9.10
2021,03,27,18,42,9.10
2021,03,27,18,43,9.20
2021,03,27,18,44,9.20
2021,03,27,18,45,9.20
2021,03,27,18,46,9.20
2021,03,27,18,47,9.20
2021,03,27,18,48,9.10
2021,03,27,18,49,9.10
2021,03,27,18,50,9.10
2021,03,27,18,51,9.10
2021,03,27,18,52,9.10
2021,03,27,18,53,9.20
2021,03,27,18,54,9.20
2021,03,27,18,55,9.20
2021,03,27,18,56,9.20
2021,03,27,18,57,9.10
2021,03,27,18,58,9.10
2021,03,27,18,59,9.10
2021,03,27,19,00,9.10
2021,03,27,19,01,9.10
2021,03,27,19,02,9.10
2021,03,27,19,03,9.10
2021,03,27,19,04,9.10
2021,03,27,19,05,9.10
2021,03,27,19,06,9.10
2021,03,27,19,07,9.10
2021,03,27,19,08,9.10
2021,03,27,19,09,9.10
2021,03,27,19,10,9.10
2021,03,27,19,11,9.10
2021,03,27,19,12,9.10
2021,03,27,19,13,9.00